When you browse on this site, cookies collect data to enhance your experience and personalize the content and advertising you see.
Visit our Privacy Policy to learn more. By continuing to use the site, you agree to this use of cookies and data.
  • In Hungary
  • List of Countries
  • For 7 days
  • Water Temperature
  • Satellite Maps
  • Weather Map
  • News
  • Weather Widgets
  • user-avatar
    Login

    Hourly Weather Lipowiec

    Today, 20 June, Thursday

    Time Temperature Precipitation Wind Pressure Humidity
    00:00 +18°C° 0 mm 1 mps 711 mmHg 92%
    01:00 +16°C° 0 mm 1 mps 711 mmHg 93%
    02:00 +16°C° 0 mm 1 mps 711 mmHg 93%
    03:00 +16°C° 0 mm 1 mps 711 mmHg 93%
    04:00 +16°C° 0 mm 2 mps 711 mmHg 94%
    05:00 +17°C° 0 mm 2 mps 712 mmHg 89%
    06:00 +19°C° 0 mm 2 mps 712 mmHg 85%
    07:00 +21°C° 0 mm 2 mps 712 mmHg 80%
    08:00 +23°C° 0.1 mm 2 mps 712 mmHg 74%
    09:00 +24°C° 0.1 mm 3 mps 712 mmHg 68%
    10:00 +26°C° 0.1 mm 3 mps 712 mmHg 62%
    11:00 +26°C° 0.7 mm 3 mps 712 mmHg 62%
    12:00 +27°C° 0.7 mm 3 mps 712 mmHg 62%
    13:00 +27°C° 0.7 mm 3 mps 712 mmHg 61%
    14:00 +27°C° 0.8 mm 3 mps 712 mmHg 65%
    15:00 +26°C° 0.8 mm 3 mps 712 mmHg 68%
    16:00 +26°C° 0.8 mm 3 mps 712 mmHg 72%
    17:00 +24°C° 0.8 mm 2 mps 711 mmHg 77%
    18:00 +23°C° 0.8 mm 2 mps 711 mmHg 82%
    19:00 +21°C° 0.8 mm 1 mps 711 mmHg 87%
    20:00 +20°C° 0 mm 1 mps 711 mmHg 88%
    21:00 +19°C° 0 mm 1 mps 711 mmHg 89%
    22:00 +18°C° 0 mm 1 mps 711 mmHg 90%
    23:00 +18°C° 0.1 mm 1 mps 711 mmHg 90%

    Tomorrow, 21 June, Friday

    Time Temperature Precipitation Wind Pressure Humidity
    00:00 +18°C° 0.1 mm 1 mps 711 mmHg 90%
    01:00 +18°C° 0.1 mm 1 mps 712 mmHg 90%
    02:00 +18°C° 0.1 mm 1 mps 712 mmHg 90%
    03:00 +18°C° 0.1 mm 1 mps 712 mmHg 91%
    04:00 +18°C° 0.1 mm 1 mps 712 mmHg 91%
    05:00 +19°C° 0.2 mm 1 mps 712 mmHg 89%
    06:00 +20°C° 0.2 mm 1 mps 712 mmHg 87%
    07:00 +20°C° 0.2 mm 0 mps 713 mmHg 86%
    08:00 +22°C° 1.2 mm 1 mps 713 mmHg 85%
    09:00 +23°C° 1.2 mm 1 mps 713 mmHg 84%
    10:00 +24°C° 1.2 mm 1 mps 713 mmHg 83%
    11:00 +24°C° 1.5 mm 1 mps 713 mmHg 81%
    12:00 +25°C° 1.5 mm 1 mps 713 mmHg 80%
    13:00 +25°C° 1.5 mm 2 mps 713 mmHg 79%
    14:00 +24°C° 1.8 mm 2 mps 713 mmHg 84%
    15:00 +23°C° 1.8 mm 1 mps 712 mmHg 89%
    16:00 +21°C° 1.8 mm 1 mps 712 mmHg 94%
    17:00 +21°C° 0.3 mm 1 mps 712 mmHg 94%
    18:00 +20°C° 0.3 mm 1 mps 712 mmHg 94%
    19:00 +18°C° 0.3 mm 0 mps 712 mmHg 94%
    20:00 +17°C° 0 mm 0 mps 713 mmHg 93%
    21:00 +17°C° 0 mm 0 mps 713 mmHg 93%
    22:00 +16°C° 0 mm 0 mps 713 mmHg 93%
    23:00 +18°C° 0 mm 1 mps 713 mmHg 94%

    Day after tomorrow, 22 June, Saturday

    Time Temperature Precipitation Wind Pressure Humidity
    00:00 +18°C° 0 mm 1 mps 713 mmHg 94%
    01:00 +16°C° 0 mm 1 mps 713 mmHg 95%
    02:00 +16°C° 0 mm 1 mps 713 mmHg 95%
    03:00 +16°C° 0 mm 1 mps 713 mmHg 96%
    04:00 +16°C° 0 mm 1 mps 713 mmHg 97%
    05:00 +18°C° 0 mm 1 mps 714 mmHg 95%
    06:00 +19°C° 0 mm 1 mps 714 mmHg 94%
    07:00 +19°C° 0 mm 2 mps 715 mmHg 92%
    08:00 +20°C° 0.1 mm 2 mps 715 mmHg 88%
    09:00 +21°C° 0.1 mm 2 mps 715 mmHg 83%
    10:00 +21°C° 0.1 mm 3 mps 715 mmHg 79%
    11:00 +22°C° 0.3 mm 3 mps 715 mmHg 77%
    12:00 +24°C° 0.3 mm 3 mps 715 mmHg 75%
    13:00 +24°C° 0.3 mm 3 mps 715 mmHg 74%
    14:00 +23°C° 0.8 mm 4 mps 715 mmHg 77%
    15:00 +22°C° 0.8 mm 4 mps 714 mmHg 80%
    16:00 +22°C° 0.8 mm 4 mps 714 mmHg 83%
    17:00 +21°C° 0.5 mm 3 mps 714 mmHg 87%
    18:00 +20°C° 0.5 mm 3 mps 714 mmHg 91%
    19:00 +19°C° 0.5 mm 3 mps 714 mmHg 95%
    20:00 +18°C° 0.1 mm 3 mps 714 mmHg 96%
    21:00 +17°C° 0.1 mm 2 mps 714 mmHg 97%
    22:00 +17°C° 0.1 mm 2 mps 714 mmHg 98%
    23:00 +17°C° 0.1 mm 2 mps 713 mmHg 98%

    23 June, Sunday

    Time Temperature Precipitation Wind Pressure Humidity
    00:00 +17°C° 0.1 mm 2 mps 713 mmHg 98%
    01:00 +17°C° 0.1 mm 2 mps 713 mmHg 98%
    02:00 +17°C° 0 mm 2 mps 713 mmHg 98%
    03:00 +17°C° 0 mm 2 mps 713 mmHg 98%
    04:00 +17°C° 0 mm 2 mps 713 mmHg 98%
    05:00 +17°C° 0 mm 2 mps 714 mmHg 97%
    06:00 +18°C° 0 mm 2 mps 714 mmHg 96%
    07:00 +18°C° 0 mm 2 mps 714 mmHg 95%
    08:00 +18°C° 0 mm 2 mps 714 mmHg 94%
    09:00 +18°C° 0 mm 3 mps 714 mmHg 92%
    10:00 +19°C° 0 mm 3 mps 714 mmHg 90%
    11:00 +19°C° 0 mm 3 mps 714 mmHg 90%
    12:00 +19°C° 0 mm 3 mps 714 mmHg 91%
    13:00 +19°C° 0 mm 3 mps 714 mmHg 91%
    14:00 +19°C° 0.1 mm 3 mps 714 mmHg 91%
    15:00 +19°C° 0.1 mm 3 mps 714 mmHg 92%
    16:00 +19°C° 0.1 mm 3 mps 714 mmHg 93%
    17:00 +19°C° 0.1 mm 3 mps 715 mmHg 94%
    18:00 +18°C° 0.1 mm 3 mps 715 mmHg 94%
    19:00 +18°C° 0.1 mm 3 mps 715 mmHg 95%
    20:00 +18°C° 0.1 mm 3 mps 715 mmHg 95%
    21:00 +18°C° 0.1 mm 3 mps 715 mmHg 95%
    22:00 +18°C° 0.1 mm 4 mps 716 mmHg 95%
    23:00 +18°C° 0 mm 3 mps 716 mmHg 95%

    24 June, Monday

    Time Temperature Precipitation Wind Pressure Humidity
    00:00 +17°C° 0 mm 3 mps 716 mmHg 95%
    01:00 +17°C° 0 mm 3 mps 716 mmHg 94%
    02:00 +17°C° 0 mm 3 mps 716 mmHg 94%
    03:00 +17°C° 0 mm 3 mps 716 mmHg 94%
    04:00 +17°C° 0 mm 3 mps 716 mmHg 94%
    05:00 +17°C° 0 mm 3 mps 716 mmHg 94%
    06:00 +17°C° 0 mm 3 mps 716 mmHg 93%
    07:00 +17°C° 0 mm 3 mps 717 mmHg 93%
    08:00 +17°C° 0 mm 3 mps 717 mmHg 93%
    09:00 +17°C° 0 mm 3 mps 717 mmHg 93%
    10:00 +17°C° 0 mm 3 mps 717 mmHg 93%
    11:00 +18°C° 0 mm 3 mps 717 mmHg 91%
    12:00 +18°C° 0 mm 3 mps 717 mmHg 90%
    13:00 +19°C° 0 mm 3 mps 718 mmHg 89%
    14:00 +19°C° 0 mm 3 mps 718 mmHg 89%
    15:00 +19°C° 0 mm 3 mps 718 mmHg 88%
    16:00 +20°C° 0 mm 3 mps 718 mmHg 88%
    17:00 +20°C° 0.1 mm 3 mps 718 mmHg 89%
    18:00 +20°C° 0.1 mm 3 mps 718 mmHg 90%
    19:00 +19°C° 0.1 mm 3 mps 718 mmHg 91%
    20:00 +19°C° 0 mm 3 mps 718 mmHg 93%
    21:00 +18°C° 0 mm 3 mps 719 mmHg 95%
    22:00 +17°C° 0 mm 2 mps 719 mmHg 97%
    23:00 +17°C° 0 mm 2 mps 719 mmHg 97%

    25 June, Tuesday

    Time Temperature Precipitation Wind Pressure Humidity
    00:00 +17°C° 0 mm 2 mps 719 mmHg 97%
    01:00 +17°C° 0 mm 2 mps 719 mmHg 96%
    02:00 +17°C° 0 mm 2 mps 719 mmHg 97%
    03:00 +17°C° 0 mm 2 mps 719 mmHg 97%
    04:00 +17°C° 0 mm 2 mps 719 mmHg 97%
    05:00 +17°C° 0 mm 2 mps 719 mmHg 96%
    06:00 +17°C° 0 mm 3 mps 720 mmHg 95%
    07:00 +17°C° 0 mm 3 mps 720 mmHg 94%
    08:00 +18°C° 0 mm 3 mps 720 mmHg 92%
    09:00 +18°C° 0 mm 3 mps 720 mmHg 91%
    10:00 +18°C° 0 mm 3 mps 720 mmHg 89%
    11:00 +19°C° 0 mm 3 mps 720 mmHg 87%
    12:00 +19°C° 0 mm 3 mps 720 mmHg 84%
    13:00 +20°C° 0 mm 3 mps 720 mmHg 81%
    14:00 +20°C° 0 mm 3 mps 720 mmHg 82%
    15:00 +20°C° 0 mm 3 mps 720 mmHg 82%
    16:00 +20°C° 0 mm 3 mps 720 mmHg 83%
    17:00 +20°C° 0 mm 3 mps 720 mmHg 85%
    18:00 +19°C° 0 mm 2 mps 720 mmHg 88%
    19:00 +19°C° 0 mm 2 mps 720 mmHg 90%
    20:00 +18°C° 0 mm 2 mps 720 mmHg 92%
    21:00 +18°C° 0 mm 2 mps 721 mmHg 95%
    22:00 +17°C° 0 mm 2 mps 721 mmHg 97%
    23:00 +17°C° 0 mm 2 mps 721 mmHg 97%
    Show more